TimeEDT,TemperatureF,Dew PointF,Humidity,Sea Level PressureIn,VisibilityMPH,Wind Direction,Wind SpeedMPH,Gust SpeedMPH,PrecipitationIn,Events,Conditions,WindDirDegrees,DateUTC
12:15 AM,59.0,57.2,94,30.04,0.5,NE,3.5,-,N/A,,Overcast,40,2012-10-03 04:15:00
12:35 AM,59.0,57.2,94,30.04,0.5,NE,3.5,-,N/A,,Overcast,40,2012-10-03 04:35:00
1:15 AM,59.0,57.2,94,30.04,0.5,ENE,5.8,-,N/A,,Overcast,60,2012-10-03 05:15:00
1:35 AM,59.0,57.2,94,30.04,0.5,East,3.5,-,N/A,,Overcast,80,2012-10-03 05:35:00
1:55 AM,59.0,57.2,94,30.04,0.5,NE,3.5,-,N/A,,Overcast,50,2012-10-03 05:55:00
2:15 AM,59.0,57.2,94,30.04,0.5,Calm,Calm,-,N/A,,Overcast,0,2012-10-03 06:15:00
2:35 AM,59.0,57.2,94,30.04,0.5,NE,3.5,-,N/A,,Overcast,40,2012-10-03 06:35:00
2:55 AM,59.0,57.2,94,30.03,0.2,NNE,5.8,-,N/A,,Overcast,30,2012-10-03 06:55:00
3:15 AM,59.0,57.2,94,30.03,0.2,ENE,4.6,-,N/A,,Overcast,60,2012-10-03 07:15:00
3:55 AM,59.0,57.2,94,30.04,0.5,NNE,4.6,-,N/A,,Overcast,20,2012-10-03 07:55:00
4:15 AM,59.0,57.2,94,30.05,0.5,NNE,4.6,-,N/A,,Overcast,20,2012-10-03 08:15:00
4:35 AM,59.0,57.2,94,30.04,0.8,NE,4.6,-,N/A,,Overcast,50,2012-10-03 08:35:00
4:55 AM,59.0,57.2,94,30.05,1.5,NE,3.5,-,N/A,,Overcast,40,2012-10-03 08:55:00
5:15 AM,59.0,57.2,94,30.05,2.0,ENE,3.5,-,N/A,,Overcast,60,2012-10-03 09:15:00
5:35 AM,59.0,57.2,94,30.06,1.8,ENE,3.5,-,N/A,,Overcast,60,2012-10-03 09:35:00
5:45 AM,59.0,57.2,94,30.06,1.0,NE,5.8,-,N/A,,Overcast,50,2012-10-03 09:45:00
6:45 AM,59.0,57.2,94,30.07,0.8,ENE,4.6,-,N/A,,Overcast,70,2012-10-03 10:45:00
7:17 AM,59.0,57.2,94,30.09,0.2,North,3.5,-,N/A,Fog,Fog,350,2012-10-03 11:17:00
7:45 AM,60.8,57.2,88,30.10,0.1,Calm,Calm,-,N/A,Fog,Fog,0,2012-10-03 11:45:00
8:45 AM,60.8,57.2,88,30.10,0.6,Calm,Calm,-,N/A,Fog,Fog,0,2012-10-03 12:45:00
9:02 AM,60.8,59.0,94,30.10,1.0,Calm,Calm,-,N/A,,Overcast,0,2012-10-03 13:02:00
9:45 AM,62.6,60.8,94,30.10,1.0,ENE,5.8,-,N/A,,Overcast,70,2012-10-03 13:45:00
10:03 AM,62.6,60.8,94,30.11,0.2,NE,5.8,-,N/A,Fog,Fog,40,2012-10-03 14:03:00
10:34 AM,62.6,60.8,94,30.12,1.0,Calm,Calm,-,N/A,,Overcast,0,2012-10-03 14:34:00
11:45 AM,64.4,62.6,94,30.10,2.0,East,3.5,-,N/A,,Overcast,100,2012-10-03 15:45:00
12:45 PM,66.2,64.4,94,30.09,6.0,ESE,4.6,-,N/A,,Overcast,120,2012-10-03 16:45:00
1:45 PM,71.6,66.2,83,30.08,10.0,ESE,5.8,-,N/A,,Overcast,110,2012-10-03 17:45:00
2:45 PM,69.8,66.2,88,30.09,10.0,South,3.5,-,N/A,,Overcast,190,2012-10-03 18:45:00
3:45 PM,69.8,66.2,88,30.09,10.0,SSE,3.5,-,N/A,,Overcast,160,2012-10-03 19:45:00
4:45 PM,68.0,64.4,88,30.10,2.0,South,3.5,-,N/A,,Overcast,170,2012-10-03 20:45:00
5:45 PM,66.2,64.4,94,30.11,1.0,Calm,Calm,-,N/A,,Overcast,0,2012-10-03 21:45:00
6:45 PM,66.2,64.4,94,30.12,0.5,Calm,Calm,-,N/A,,Overcast,0,2012-10-03 22:45:00
7:45 PM,66.2,64.4,94,30.13,0.5,Calm,Calm,-,N/A,Fog,Fog,0,2012-10-03 23:45:00
8:45 PM,66.2,64.4,94,30.14,0.2,Calm,Calm,-,N/A,Fog,Fog,0,2012-10-04 00:45:00
9:15 PM,66.2,64.4,94,30.14,0.2,ESE,4.6,-,N/A,,Overcast,110,2012-10-04 01:15:00
9:35 PM,66.2,64.4,94,30.15,0.2,Calm,Calm,-,N/A,,Overcast,0,2012-10-04 01:35:00
9:55 PM,66.2,64.4,94,30.15,0.5,Calm,Calm,-,N/A,,Overcast,0,2012-10-04 01:55:00
10:15 PM,66.2,64.4,94,30.14,0.2,East,4.6,-,N/A,,Overcast,100,2012-10-04 02:15:00
10:35 PM,66.2,64.4,94,30.15,0.5,SE,4.6,-,N/A,,Overcast,130,2012-10-04 02:35:00
11:15 PM,66.2,64.4,94,30.15,0.5,Calm,Calm,-,N/A,,Overcast,0,2012-10-04 03:15:00
11:35 PM,66.2,64.4,94,30.15,0.5,Calm,Calm,-,N/A,,Overcast,0,2012-10-04 03:35:00
11:55 PM,66.2,64.4,94,30.15,0.2,Calm,Calm,-,N/A,,Overcast,0,2012-10-04 03:55:00